This demonstration page uses our WeatherBlox Daily Observations layout. Learn more.

Left ArrowRight Arrow

39.92423, -83.80882

Hourly Observations for January 27, 2021

Temp ( °F °C ) Dew Point ( °F °C ) Humidity (%) Winds ( mph kmh ) Pressure ( in mb ) Visibility ( mi km ) Precip ( " mm )
12:56 am 00:56 Cloudy 31 -0.6 30 -1.1 96 96 NNW 9 15 30.1 1019 10 16.0934 0 0
1:16 am 01:16 Cloudy 30 -1 30 -1 100 100 N 8 13 30.13 1020 10 16.0934 0 0
1:56 am 01:56 Cloudy 31 -0.6 30 -1.1 96 96 N 9 15 30.12 1020 10 16.0934 0 0
2:24 am 02:24 Cloudy 30 -1 28 -2 93 93 N 7 11 30.17 1022 10 16.0934 0 0
2:28 am 02:28 Cloudy 30 -1 28 -2 93 93 N 7 11 30.17 1022 10 16.0934 0 0
2:56 am 02:56 Cloudy 31 -0.6 30 -1.1 96 96 N 9 15 30.16 1021 10 16.0934 0 0
3:24 am 03:24 Cloudy 30 -1 30 -1 100 100 N 10 17 30.2 1023 10 16.0934 0 0
3:56 am 03:56 Cloudy 30 -1.1 29 -1.7 96 96 N 10 17 30.18 1022 10 16.0934 0 0
4:56 am 04:56 Cloudy 30 -1.1 29 -1.7 96 96 N 8 13 30.2 1023 10 16.0934 0 0
5:56 am 05:56 Cloudy 29 -1.7 29 -1.7 100 100 N 8 13 30.21 1023 10 16.0934 0 0
6:56 am 06:56 Cloudy 29 -1.7 28 -2.2 96 96 NE 7 11 30.18 1022 10 16.0934 0 0
7:56 am 07:56 Cloudy 29 -1.7 27 -2.8 92 92 N 8 13 30.24 1024 10 16.0934 0 0
8:11 am 08:11 Cloudy 28 -2 27 -3 93 93 NNE 10 17 30.27 1025 10 16.0934 0 0
8:47 am 08:47 Cloudy 28 -2 27 -3 93 93 NE 9 15 30.26 1025 9 14.48406 0.001 0.001
8:56 am 08:56 Cloudy 29 -1.7 27 -2.8 92 92 NE 9 15 30.24 1024 10 16.0934 0.001 0.001
9:43 am 09:43 Cloudy 28 -2 28 -2 100 100 NE 8 13 30.27 1025 10 16.0934 0 0
9:56 am 09:56 Cloudy 29 -1.7 28 -2.2 96 96 NNE 9 15 30.25 1025 10 16.0934 0 0
10:03 am 10:03 Cloudy 28 -2 27 -3 93 93 NNE 8 13 30.28 1025 10 16.0934 0 0
10:56 am 10:56 Cloudy 30 -1.1 27 -2.8 88 88 NNE 12 19 30.25 1025 10 16.0934 0 0
11:56 am 11:56 Cloudy 30 -1.1 27 -2.8 88 88 NE 9 15 30.25 1025 10 16.0934 0 0
12:56 pm 12:56 Cloudy 31 -0.6 27 -2.8 85 85 N 10 17 30.26 1025 10 16.0934 0.001 0.001
1:56 pm 13:56 Cloudy 31 -0.6 27 -2.8 85 85 NE 9 15 30.22 1023 10 16.0934 0 0
2:56 pm 14:56 Cloudy 31 -0.6 26 -3.3 82 82 NNE 12 19 30.2 1023 10 16.0934 0 0
3:56 pm 15:56 Cloudy 30 -1.1 26 -3.3 85 85 NNE 10 17 30.21 1023 10 16.0934 0 0
4:56 pm 16:56 Cloudy 29 -1.7 26 -3.3 89 89 N 14 22 30.24 1024 10 16.0934 0 0
5:56 pm 17:56 Cloudy 27 -2.8 25 -3.9 92 92 N 15 24 30.26 1025 10 16.0934 0 0
6:09 pm 18:09 Cloudy 27 -3 25 -4 93 93 N 15 24 30.29 1026 10 16.0934 0 0
6:56 pm 18:56 Cloudy 26 -3.3 24 -4.4 92 92 N 13 20 30.28 1026 10 16.0934 0 0
7:56 pm 19:56 Cloudy 26 -3.3 23 -5 88 88 N 14 22 30.3 1026 10 16.0934 0 0
8:48 pm 20:48 Cloudy 25 -4 21 -6 86 86 N 15 24 30.34 1027 10 16.0934 0 0
8:56 pm 20:56 Cloudy 25 -3.9 22 -5.6 88 88 N 13 20 30.32 1027 10 16.0934 0 0
9:56 pm 21:56 Cloudy 25 -3.9 21 -6.1 85 85 N 15 24 30.34 1028 10 16.0934 0 0
10:56 pm 22:56 Cloudy 24 -4.4 20 -6.7 84 84 N 13 20 30.36 1028 10 16.0934 0 0
11:18 pm 23:18 Cloudy 25 -4 19 -7 80 80 N 10 17 30.39 1029 10 16.0934 0 0
11:56 pm 23:56 Mostly Cloudy 23 -5 18 -7.8 81 81 NNW 12 19 30.38 1029 10 16.0934 0 0

Powered by AerisWeather